This demonstration page uses our WeatherBlox Daily Observations layout. Learn more.

Left ArrowRight Arrow

41.55636, -103.73856

Hourly Observations for August 15, 2022

Temp ( °F °C ) Dew Point ( °F °C ) Humidity (%) Winds ( mph kmh ) Pressure ( in mb ) Visibility ( mi km ) Precip ( " mm )
12:56 am 00:56 Cloudy 65 18.4 60 15.8 85 85 SSE 5 7 29.93 1014 10 16 0.02 0.51
1:56 am 01:56 Cloudy 65 18.1 60 15.7 86 86 Calm 29.91 1013 10 16 0.00 0.00
2:56 am 02:56 Cloudy 64 18 60 15.8 87 87 WNW 3 6 29.89 1012 10 16 0.00 0.00
3:56 am 03:56 Cloudy with Light Rain 64 17.9 61 15.9 88 88 NNW 5 7 29.87 1011 10 16 0.01 0.13
4:56 am 04:56 Partly Cloudy 62 16.6 59 14.9 90 90 WSW 6 9 29.87 1012 10 16 0.01 0.13
5:56 am 05:56 Cloudy 62 16.8 59 15 89 89 W 5 7 29.90 1013 10 16 0.00 0.00
6:56 am 06:56 Cloudy 63 17.2 60 15.4 89 89 NW 3 6 29.91 1013 10 16 0.00 0.00
7:56 am 07:56 Mostly Cloudy 66 19.1 60 15.7 81 81 WNW 6 9 29.95 1014 10 16 0.00 0.00
8:56 am 08:56 Mostly Cloudy 70 21.1 60 15.4 70 70 NW 10 17 29.96 1014 10 16 0.00 0.00
9:58 am 09:58 Cloudy 72 22 59 15.1 65 65 NNW 10 17 29.96 1014 10 16 0.00 0.00
10:58 am 10:58 Mostly Cloudy 73 22.8 58 14.6 60 60 N 10 17 29.83 1010 10 16 0.00 0.00
11:58 am 11:58 Partly Cloudy 77 25 56 13.5 49 49 N 14 22 29.79 1009 10 16 0.00 0.00
12:58 pm 12:58 Partly Cloudy 79 26.1 55 12.5 43 43 N 12 19 29.77 1008 10 16 0.00 0.00
1:58 pm 13:58 Mostly Cloudy 81 27 54 12.2 40 40 N 3 6 29.74 1007 10 16 0.00 0.00
2:58 pm 14:58 Cloudy 78 25.8 57 13.9 48 48 NNE 15 24 29.76 1008 10 16 0.00 0.00
3:58 pm 15:58 Cloudy 79 26.3 55 12.7 43 43 NNE 13 20 29.76 1008 10 16 0.00 0.00
4:58 pm 16:58 Mostly Cloudy 81 27 55 13 42 42 NE 20 31 29.74 1007 10 16 0.00 0.00
5:58 pm 17:58 Mostly Cloudy 81 27.2 54 12 39 39 NE 18 30 29.75 1007 10 16 0.00 0.00
6:58 pm 18:58 Sunny 77 25.1 56 13.6 49 49 ENE 15 24 29.80 1009 10 16 0.00 0.00
7:58 pm 19:58 Clear 73 22.5 58 14.3 60 60 ENE 13 20 29.86 1011 10 16 0.00 0.00
8:58 pm 20:58 Cloudy 70 21 59 15.1 69 69 ENE 3 6 29.90 1013 10 16 0.00 0.00
9:58 pm 21:58 Clear 68 19.8 59 15 74 74 ENE 5 7 30.02 1017 10 16 0.00 0.00
10:58 pm 22:58 Clear 67 19.3 59 15 76 76 Calm 30.02 1017 10 16 0.00 0.00
11:58 pm 23:58 Clear 65 18.4 58 14.5 78 78 Calm 30.01 1016 10 16 0.00 0.00

Powered by AerisWeather